• In Czech Republic
  • List of Countries
  • For 7 days
  • Water Temperature
  • Satellite Maps
  • Weather Map
  • Weather Widgets
  • user-avatar
    Login

    Hourly Weather Chester

    Today, 26 February, Monday

    Time Temperature Precipitation Wind Pressure Humidity
    00:00 -4°C° 0 mm 5 mps 773 mmHg 68%
    01:00 -3°C° 0 mm 4 mps 773 mmHg 70%
    02:00 -3°C° 0 mm 4 mps 773 mmHg 72%
    03:00 -4°C° 0 mm 4 mps 773 mmHg 74%
    04:00 -4°C° 0 mm 4 mps 773 mmHg 75%
    05:00 -4°C° 0 mm 4 mps 774 mmHg 77%
    06:00 -4°C° 0 mm 4 mps 774 mmHg 78%
    07:00 -4°C° 0 mm 5 mps 774 mmHg 72%
    08:00 -2°C° 0 mm 5 mps 774 mmHg 66%
    09:00 -2°C° 0 mm 6 mps 774 mmHg 60%
    10:00 -2°C° 0 mm 6 mps 774 mmHg 56%
    11:00 -1°C° 0 mm 6 mps 774 mmHg 52%
    12:00 +1°C° 0 mm 6 mps 774 mmHg 48%
    13:00 +1°C° 0 mm 6 mps 774 mmHg 47%
    14:00 +1°C° 0 mm 6 mps 774 mmHg 47%
    15:00 +1°C° 0 mm 6 mps 774 mmHg 46%
    16:00 0°C° 0 mm 5 mps 774 mmHg 50%
    17:00 -1°C° 0 mm 5 mps 774 mmHg 54%
    18:00 -2°C° 0 mm 5 mps 774 mmHg 57%
    19:00 -3°C° 0 mm 4 mps 774 mmHg 61%
    20:00 -3°C° 0 mm 4 mps 774 mmHg 65%
    21:00 -4°C° 0 mm 4 mps 774 mmHg 69%
    22:00 -4°C° 0 mm 4 mps 774 mmHg 70%
    23:00 -4°C° 0 mm 3 mps 774 mmHg 71%

    Tomorrow, 27 February, Tuesday

    Time Temperature Precipitation Wind Pressure Humidity
    00:00 -4°C° 0 mm 3 mps 774 mmHg 72%
    01:00 -4°C° 0 mm 3 mps 774 mmHg 72%
    02:00 -4°C° 0 mm 3 mps 773 mmHg 73%
    03:00 -3°C° 0 mm 2 mps 773 mmHg 74%
    04:00 -3°C° 0.1 mm 2 mps 772 mmHg 76%
    05:00 -4°C° 0.1 mm 3 mps 772 mmHg 78%
    06:00 -4°C° 0.1 mm 3 mps 771 mmHg 80%
    07:00 -2°C° 0.4 mm 3 mps 771 mmHg 82%
    08:00 -3°C° 0.4 mm 4 mps 770 mmHg 83%
    09:00 -2°C° 0.4 mm 4 mps 770 mmHg 85%
    10:00 -2°C° 0.3 mm 4 mps 769 mmHg 83%
    11:00 -1°C° 0.3 mm 5 mps 769 mmHg 81%
    12:00 -1°C° 0.3 mm 5 mps 769 mmHg 79%
    13:00 -1°C° 0.2 mm 5 mps 768 mmHg 76%
    14:00 -2°C° 0.2 mm 6 mps 768 mmHg 73%
    15:00 -2°C° 0.2 mm 6 mps 768 mmHg 70%
    16:00 -3°C° 0.1 mm 6 mps 768 mmHg 72%
    17:00 -4°C° 0.1 mm 5 mps 768 mmHg 74%
    18:00 -5°C° 0.1 mm 5 mps 768 mmHg 76%
    19:00 -5°C° 0 mm 5 mps 768 mmHg 78%
    20:00 -4°C° 0 mm 4 mps 768 mmHg 80%
    21:00 -5°C° 0 mm 4 mps 768 mmHg 81%
    22:00 -5°C° 0.1 mm 4 mps 768 mmHg 81%
    23:00 -5°C° 0.1 mm 4 mps 767 mmHg 82%

    Day after tomorrow, 28 February, Wednesday

    Time Temperature Precipitation Wind Pressure Humidity
    00:00 -5°C° 0.1 mm 4 mps 767 mmHg 82%
    01:00 -6°C° 0.1 mm 5 mps 767 mmHg 82%
    02:00 -7°C° 0.1 mm 5 mps 766 mmHg 81%
    03:00 -7°C° 0.1 mm 5 mps 766 mmHg 81%
    04:00 -7°C° 0.1 mm 5 mps 765 mmHg 80%
    05:00 -7°C° 0.1 mm 5 mps 765 mmHg 79%
    06:00 -7°C° 0.1 mm 5 mps 765 mmHg 78%
    07:00 -7°C° 0 mm 5 mps 764 mmHg 76%
    08:00 -6°C° 0 mm 5 mps 764 mmHg 74%
    09:00 -6°C° 0 mm 6 mps 764 mmHg 72%
    10:00 -5°C° 0.1 mm 6 mps 764 mmHg 70%
    11:00 -4°C° 0.1 mm 6 mps 764 mmHg 68%
    12:00 -4°C° 0.1 mm 7 mps 764 mmHg 66%
    13:00 -4°C° 0.2 mm 7 mps 764 mmHg 65%
    14:00 -4°C° 0.2 mm 7 mps 764 mmHg 64%
    15:00 -5°C° 0.2 mm 8 mps 764 mmHg 63%
    16:00 -6°C° 0.1 mm 7 mps 764 mmHg 65%
    17:00 -7°C° 0.1 mm 7 mps 764 mmHg 68%
    18:00 -8°C° 0.1 mm 7 mps 764 mmHg 70%
    19:00 -8°C° 0 mm 6 mps 764 mmHg 73%
    20:00 -8°C° 0 mm 6 mps 764 mmHg 77%
    21:00 -8°C° 0 mm 6 mps 765 mmHg 80%
    22:00 -9°C° 0.1 mm 6 mps 764 mmHg 80%
    23:00 -9°C° 0.1 mm 6 mps 764 mmHg 80%

    1 March, Thursday

    Time Temperature Precipitation Wind Pressure Humidity
    00:00 -9°C° 0.1 mm 6 mps 763 mmHg 81%
    01:00 -9°C° 0 mm 6 mps 763 mmHg 81%
    02:00 -9°C° 0 mm 7 mps 762 mmHg 81%
    03:00 -9°C° 0 mm 7 mps 762 mmHg 81%
    04:00 -8°C° 0 mm 8 mps 761 mmHg 80%
    05:00 -8°C° 0 mm 8 mps 761 mmHg 80%
    06:00 -8°C° 0 mm 8 mps 760 mmHg 79%
    07:00 -9°C° 0 mm 9 mps 760 mmHg 77%
    08:00 -8°C° 0 mm 10 mps 760 mmHg 75%
    09:00 -8°C° 0 mm 11 mps 759 mmHg 73%
    10:00 -7°C° 0 mm 11 mps 759 mmHg 71%
    11:00 -7°C° 0 mm 11 mps 758 mmHg 69%
    12:00 -6°C° 0 mm 11 mps 758 mmHg 67%
    13:00 -6°C° 0 mm 11 mps 757 mmHg 67%
    14:00 -6°C° 0 mm 11 mps 757 mmHg 68%
    15:00 -6°C° 0 mm 11 mps 756 mmHg 68%
    16:00 -6°C° 0 mm 11 mps 756 mmHg 70%
    17:00 -7°C° 0 mm 11 mps 755 mmHg 72%
    18:00 -7°C° 0 mm 11 mps 755 mmHg 73%
    19:00 -7°C° 0 mm 11 mps 754 mmHg 74%
    20:00 -7°C° 0 mm 11 mps 754 mmHg 74%
    21:00 -7°C° 0 mm 11 mps 754 mmHg 74%
    22:00 -7°C° 0.1 mm 11 mps 753 mmHg 74%
    23:00 -7°C° 0.1 mm 11 mps 753 mmHg 75%

    2 March, Friday

    Time Temperature Precipitation Wind Pressure Humidity
    00:00 -7°C° 0.1 mm 11 mps 752 mmHg 75%
    01:00 -7°C° 0.2 mm 11 mps 752 mmHg 76%
    02:00 -7°C° 0.2 mm 12 mps 751 mmHg 77%
    03:00 -7°C° 0.2 mm 12 mps 750 mmHg 79%
    04:00 -7°C° 0.5 mm 11 mps 750 mmHg 80%
    05:00 -7°C° 0.5 mm 11 mps 750 mmHg 82%
    06:00 -7°C° 0.5 mm 11 mps 750 mmHg 83%
    07:00 -7°C° 0.9 mm 10 mps 750 mmHg 85%
    08:00 -7°C° 0.9 mm 10 mps 750 mmHg 88%
    09:00 -7°C° 0.9 mm 10 mps 750 mmHg 90%
    10:00 -7°C° 0.2 mm 10 mps 749 mmHg 89%
    11:00 -5°C° 0.2 mm 9 mps 749 mmHg 88%
    12:00 -4°C° 0.2 mm 9 mps 749 mmHg 87%
    13:00 -4°C° 0 mm 8 mps 748 mmHg 88%
    14:00 -4°C° 0 mm 8 mps 748 mmHg 88%
    15:00 -3°C° 0 mm 7 mps 748 mmHg 89%
    16:00 -3°C° 0 mm 7 mps 748 mmHg 89%
    17:00 -3°C° 0 mm 7 mps 748 mmHg 90%
    18:00 -3°C° 0 mm 7 mps 747 mmHg 90%
    19:00 -3°C° 0.4 mm 7 mps 747 mmHg 91%
    20:00 -4°C° 0.4 mm 8 mps 746 mmHg 91%
    21:00 -4°C° 0.4 mm 8 mps 746 mmHg 92%
    22:00 -2°C° 1 mm 8 mps 745 mmHg 92%
    23:00 -2°C° 1 mm 8 mps 744 mmHg 92%

    3 March, Saturday

    Time Temperature Precipitation Wind Pressure Humidity
    00:00 -2°C° 1 mm 8 mps 743 mmHg 92%
    01:00 -2°C° 1.2 mm 8 mps 743 mmHg 93%
    02:00 -2°C° 1.2 mm 7 mps 743 mmHg 94%
    03:00 -2°C° 1.2 mm 7 mps 743 mmHg 95%
    04:00 -2°C° 0.5 mm 6 mps 743 mmHg 96%
    05:00 -1°C° 0.5 mm 5 mps 743 mmHg 96%
    06:00 0°C° 0.5 mm 3 mps 743 mmHg 97%
    07:00 0°C° 0.1 mm 3 mps 744 mmHg 97%
    08:00 +1°C° 0.1 mm 2 mps 744 mmHg 97%
    09:00 +2°C° 0.1 mm 2 mps 745 mmHg 98%
    10:00 +2°C° 0 mm 2 mps 745 mmHg 98%
    11:00 +2°C° 0 mm 2 mps 745 mmHg 99%
    12:00 +3°C° 0 mm 2 mps 746 mmHg 99%
    13:00 +3°C° 0 mm 2 mps 746 mmHg 99%
    14:00 +3°C° 0 mm 2 mps 746 mmHg 99%
    15:00 +3°C° 0 mm 2 mps 746 mmHg 99%
    16:00 +3°C° 0 mm 2 mps 746 mmHg 98%
    17:00 +1°C° 0 mm 3 mps 746 mmHg 98%
    18:00 +1°C° 0 mm 3 mps 745 mmHg 98%
    19:00 0°C° 0.2 mm 4 mps 745 mmHg 97%
    20:00 0°C° 0.2 mm 5 mps 745 mmHg 97%
    21:00 -1°C° 0.2 mm 6 mps 744 mmHg 96%
    22:00 +1°C° 0.8 mm 6 mps 744 mmHg 96%
    23:00 0°C° 0.8 mm 7 mps 744 mmHg 96%
    Show more